World > North America > United States > Mississippi > Alma

Alma, MS Hourly Weather Conditions

Feedback E-mail the Weather

Quick WX

Alma, MS Weather Maps

°F °C°F °C
Alma Weather Map
UTC Time: 12/7/2022, 04:35
Your Time:

Alma, MS Regional Weather

Expires:202212070500;;430824
ASUS44 KJAN 070410
RWRMS 

MISSISSIPPI HOURLY WEATHER ROUNDUP
NATIONAL WEATHER SERVICE JACKSON MS
1000 PM CST TUE DEC 06 2022

NOTE: "FAIR: INDICATES FEW OR NO CLOUDS BELOW 12,000 FEET WITH NO
SIGNIFICANT WEATHER AND/OR OBSTRUCTIONS TO VISIBILITY.


MSZ003>006-009-014>017-022>024-029>033-037>039-070500-
NORTHEAST MISSISSIPPI
  
CITY           SKY/WX    TMP DP  RH WIND       PRES   REMARKS
ABERDEEN       CLOUDY    68  68 100 S7        30.12R                  
COLUMBUS AFB   MOCLDY    67  64  91 S6        30.08S                  
CORINTH        DRIZZLE   66  64  94 S10       30.08S                  
GOLDN TRIANGLE CLOUDY    69  65  86 S10       30.13R                  
STARKVILLE     CLOUDY    68  66  94 S6        30.10S                  
TUPELO         MOCLDY    70  63  78 S7        30.10R                  
$$


SKY/WX - Weather  TMP - Temperature  DP - Dew Point  RH - Humidity
WIND - Wind Direction/Speed PRES - Barometric Pressure VSB - Visibility
WCI - Wind Chill Index E13G22 Wind - East Wind 13 mph/Gusts of 22 mph

Trending Headlines

Trending Entertainment Headlines

Alma Radar Loop

Use the map search tool if you want to place a location marker on the radar map...

Alma Quick Facts

National Two Day Weather Forecast


E-mail the Alma Weather Forecast

Voice your opinion or tell us about page issues...